This is the latest recevied weather packets stored in our database for station/object WX7EM. If no packets are shown the sender has not sent any weather packets the latest 10 day(s).
| Time | Temp. | Humidity | Pressure | Rain* | Wind** | Luminosity | Snow |
|---|---|---|---|---|---|---|---|
| 1777407873 | 13.89° C | 64% | 1023.1 hPa | 0 mm | - | 226 W/m² | - |
| 1777407572 | 13.89° C | 64% | 1023 hPa | 0 mm | - | 237 W/m² | - |
| 1777407271 | 14.44° C | 62% | 1022.9 hPa | 0 mm | - | 278 W/m² | - |
| 1777406965 | 14.44° C | 63% | 1023.1 hPa | 0 mm | - | 349 W/m² | - |
| 1777406665 | 15° C | 63% | 1023 hPa | 0 mm | - | 457 W/m² | - |
| 1777406361 | 13.89° C | 65% | 1023 hPa | 0 mm | - | 362 W/m² | - |
| 1777406061 | 14.44° C | 64% | 1023.1 hPa | 0 mm | - | 323 W/m² | - |
| 1777405758 | 13.89° C | 65% | 1023.1 hPa | 0 mm | - | 307 W/m² | - |
| 1777405454 | 13.89° C | 64% | 1023.4 hPa | 0 mm | - | 330 W/m² | - |
| 1777405152 | 14.44° C | 67% | 1023.3 hPa | 0 mm | - | 362 W/m² | - |
| 1777404849 | 13.89° C | 65% | 1023.5 hPa | 0 mm | - | 421 W/m² | - |
| 1777404547 | 13.89° C | 64% | 1023.2 hPa | 0 mm | - | 506 W/m² | - |
| 1777404242 | 13.89° C | 64% | 1023.4 hPa | 0 mm | - | 556 W/m² | - |
| 1777403939 | 14.44° C | 63% | 1023.3 hPa | 0 mm | - | 468 W/m² | - |
| 1777403638 | 14.44° C | 66% | 1023.3 hPa | 0 mm | - | 482 W/m² | - |
| 1777403333 | 13.89° C | 65% | 1023.4 hPa | 0 mm | - | 509 W/m² | - |
| 1777403033 | 13.89° C | 69% | 1023 hPa | 0 mm | - | 453 W/m² | - |
| 1777402728 | 13.89° C | 69% | 1023.3 hPa | 0 mm | - | 442 W/m² | - |
| 1777402424 | 13.89° C | 69% | 1023.2 hPa | 0 mm | - | 468 W/m² | - |
| 1777402122 | 13.33° C | 72% | 1023.6 hPa | 0 mm | - | 459 W/m² | - |
| 1777401818 | 13.89° C | 70% | 1023.5 hPa | 0 mm | - | 485 W/m² | - |
| 1777401517 | 13.89° C | 71% | 1023.6 hPa | 0 mm | - | 475 W/m² | - |
| 1777401213 | 13.33° C | 72% | 1023.4 hPa | 0 mm | - | 591 W/m² | - |
| 1777400908 | 12.78° C | 73% | 1023.4 hPa | 0 mm | - | 393 W/m² | - |
| 1777400605 | 12.78° C | 74% | 1023.5 hPa | 0 mm | - | 264 W/m² | - |
* Rain latest hour (hover to see other rain measurements)
** Current wind speed in m/s (hover to see current wind gust speed)